Location: Bas Lanzent
(48.1360°N, 3.5871°W)
Time: 03:03:46
(UTC+00:00)

Cosmos 1190 Rocket - Pass Details

Date: 18 February 2020
Orbit: 757 x 780 km, 74.1° (Epoch: 09 April)

Event Time Altitude Azimuth Distance (km) Brightness Sun altitude
Rises 06:11:51 0° 211° (SSW) 3,229 7.0 -11.5°
Reaches altitude 10° 06:14:15 10° 215° (SW) 2,311 6.2 -11.1°
Maximum altitude 06:19:27 62° 296° (WNW) 873 4.0 -10.2°
Drops below altitude 10° 06:24:43 10° 17° (NNE) 2,340 6.6 -9.4°
Sets 06:27:09 0° 21° (NNE) 3,274 7.4 -9.0°
